Regional Weather Roundup
Issued by NWS Grand Forks, ND

Home | Current Version | Previous Version | Text Only | Print | Product List | Glossary Off
Versions: 1 2 3 4 5 6 7 8 9 10 11 12 13 14 15 16 17 18 19 20 21 22 23 24 25 26 27 28 29 30 31 32 33 34 35 36 37 38 39 40 41 42 43 44 45 46 47 48 49 50

000
ASUS43 KFGF 290331
RWRFGF
PRAIRIE TO PINES  WEATHER ROUNDUP
NATIONAL WEATHER SERVICE EASTERN NORTH DAKOTA/GRAND FORKS ND
1000 PM CDT SUN MAY 28 2017

 **SATELLITE DATA USED TO AUGMENT SKY COVER AT AUTOMATED STATIONS**
 *****  WEATHER ACROSS EASTERN NORTH DAKOTA  *****

CITY           SKY/WX    TMP DP  RH WIND       PRES   REMARKS
GRAND FORKS    LGT RAIN  52  50  93 NW10      29.79R
GRAND FRKS AFB CLOUDY    52  50  93 N13       29.80R
DEVILS LAKE    CLOUDY    54  46  74 N17G23    29.85R
FARGO          CLOUDY    55  50  83 NW10      29.79R
WAHPETON ARPT  CLOUDY    54  45  71 NW8       29.81R
$$

 ***** WEATHER ACROSS CENTRAL AND WESTERN NORTH DAKOTA  *****

CITY           SKY/WX    TMP DP  RH WIND       PRES   REMARKS
BISMARCK       FAIR      58  41  53 NW10      29.94R
MINOT          CLOUDY    56  43  61 NW18G28   29.93S
JAMESTOWN      LGT RAIN  52  48  86 NW9       29.85R
MINOT AFB      MOCLDY    54  45  73 N15       29.93R
GARRISON         N/A     53  41  63 NW13      29.95R
WILLISTON      FAIR      52  40  63 NW7       30.03S
DICKINSON      FAIR      54  35  48 N14G23    30.00R
HETTINGER      FAIR      54  32  43 NW9       30.01R
$$

 *****  OTHER AIRPORT OBSERVATIONS IN OUR AREA  *****

CITY           SKY/WX    TMP DP  RH WIND       PRES   REMARKS
WALHALLA       NOT AVBL
GRAFTON AIRPOR CLOUDY    52  50  93 NW20      29.81S
VALLEY CITY AR MOCLDY    52  48  87 NW13      29.85R
CANDO          NOT AVBL
CAVALIER APRT  CLOUDY    50  48  93 NW16      29.79S
GWINNER        CLEAR     54  46  76 MISG      29.85R
SHEYENNE NWR     N/A     57  46  67 NW9       29.95S
ROLLA          CLOUDY    50  48  93 NW8       29.87R
 ***** THE ABOVE OBSERVATIONS ARE NON NWS ARE NOT QUALITY
       CONTROLLED AND MAY MIS-REPORT RAIN FOR SNOW...
$$

  *****  WEATHER ACROSS NORTHERN MINNESOTA  *****

CITY           SKY/WX    TMP DP  RH WIND       PRES   REMARKS
FLAG ISLAND    FAIR      52  46  82 NW18      29.68R
WARROAD        CLOUDY    52  46  82 W9        29.71R
ROSEAU         CLOUDY    52  46  82 NW13      29.72R
HALLOCK        CLOUDY    52  48  87 NW13G20   29.77R
THF RVR FALLS  CLOUDY    52  46  80 NW13      29.76R
BAUDETTE       CLOUDY    54  50  86 NW10      29.67R
WASKISH        CLOUDY    54  48  82 NW10G16   29.69R
CROOKSTON      CLOUDY    52  48  87 NW14      29.78R
STEPHEN NDAWN    N/A     52  46  82 NW16        N/A
GREENBUSH NDAW   N/A     52  48  87 NW15        N/A
$$
  *****  WEATHER ACROSS CENTRAL AND WEST MINNESOTA  *****

CITY           SKY/WX    TMP DP  RH WIND       PRES   REMARKS
FOSSTON        CLOUDY    50  46  87 NW12G20   29.75R
BEMIDJI        CLOUDY    51  48  92 NW13      29.71R
PARK RAPIDS    CLOUDY    52  46  80 NW15G21   29.71S
ELBOW LAKE     MOCLDY    54  49  82 W16       29.80R
WADENA         CLOUDY    54  46  76 NW10      29.74R
DETROIT LAKES  MOCLDY    52  46  82 NW12G20   29.78R
MOORHEAD       CLOUDY    54  50  87 NW8       29.80R
FERGUS FALLS   CLOUDY    52  46  82 N15       29.79R
MORRIS MN      FAIR      54  48  82 NW13      29.80R
STAPLES        CLOUDY    52  48  87 W7        29.73R
$$
  *****  WEATHER ELSEWHERE ACROSS MINNESOTA  *****

CITY           SKY/WX    TMP DP  RH WIND       PRES   REMARKS
DULUTH         MOCLDY    53  48  83 W9        29.65R
INTRNTL FALLS  CLOUDY    54  49  83 NW8       29.64R
ELY            DRIZZLE   50  48  93 W6        29.62S
CLOQUET        MOCLDY    50  46  87 W3        29.66S
WHEATON        FAIR      54  45  71 NW8       29.83S
BRAINERD       FAIR      51  45  79 SW6       29.70S
HIBBING        LGT RAIN  50  50 100 SW3       29.64F
ALEXANDRIA     CLOUDY    54  47  77 NW13G23   29.77R
SAINT CLOUD    FAIR      51  49  92 SW7       29.74R
MINNEAPOLIS    FAIR      57  48  72 NW6       29.74S
$$

  *****  WEATHER ACROSS SOUTH DAKOTA  *****

CITY           SKY/WX    TMP DP  RH WIND       PRES   REMARKS
SIOUX FALLS    MOCLDY    54  49  83 N5        29.88R
BROOKINGS      FAIR      54  49  83 NW6       29.88R
WATERTOWN      FAIR      54  47  77 NW10      29.87R
HURON          MOCLDY    57  49  74 N6        29.89R
SISSETON         N/A     55  45  68 NW12      29.83R
ABERDEEN       FAIR      54  41  61 N3        29.88R
MITCHELL       FAIR      58  51  78 CALM      29.87F
PIERRE         FAIR      62  36  37 N10       29.92R
MOBRIDGE       FAIR      62  33  33 N13       29.90R
RAPID CITY     FAIR      56  42  59 NW9       30.05R
$$

  *****  SOME WEATHER IN NEARBY STATES *****

CITY           SKY/WX    TMP DP  RH WIND       PRES   REMARKS
GLASGOW MT     FAIR      62  25  24 N13       30.10R
GREAT FALLS MT MOCLDY    56  51  84 SW7       30.23R
CHEYENNE WY    FAIR      55  39  54 N5        30.25S
SCOTTSBLUFF NE MOCLDY    55  45  68 NE13G23   30.17R
OMAHA NE       FAIR      62  50  64 CALM      29.89S
DES MOINES IA  FAIR      66  42  41 W7        29.85R
DAVENPORT IA   FAIR      65  52  62 SW3       29.78S
CHICAGO IL     FAIR      68  46  45 W5        29.76R
EAU CLAIRE WI  FAIR      53  50  89 SW3       29.70F
LA CROSSE WI   FAIR      64  47  53 W6        29.72S
$$

  *****  SOME NATIONAL WEATHER *****

CITY           SKY/WX    TMP DP  RH WIND       PRES   REMARKS
LA GUARDIA NY  MOCLDY    62  50  64 E14       29.93S
RALEIGH NC     CLOUDY    75  68  78 CALM      29.85R
ATLANTA GA     MOCLDY    74  65  73 W8        29.95R
NEW ORLEANS LA FAIR      78  74  87 W3        29.97R
OKLAHOMA CITY  FAIR      68  43  40 CALM      30.00R
ALBUQUERQUE NM FAIR      75  26  16 SW13      30.15R
SALT LAKE CITY FAIR      70  41  34 N8        30.13S
LOS ANGELES CA FAIR      62  56  80 W9        29.96S
BOISE ID       FAIR      78  38  23 N9        30.07S
SEATTLE WA     FAIR      79  51  37 N8        30.01R
$$

*** WEATHER ACROSS MANITOBA...SASKATCHEWAN AND ONTARIO ***
                ***ONTARIO***

CITY           SKY/WX    TMP DP  RH WIND       PRES   REMARKS
GERALDTON      CLOUDY    55  50  82 W5        29.59F
THUNDER BAY    LGT RAIN  50  50 100 SW2       29.60F FOG
SIOUX LOOKOUT  MOCLDY    50  50 100 NW3       29.59F
TORONTO        CLOUDY    64  57  77 E6        29.68F
BIG TROUT LK   PTCLDY    59  48  67 NE6       29.61R
PICKLE LAKE    NOT AVBL
DRYDEN         LGT RAIN  54  52  94 W2        29.61S
KENORA         MOCLDY    54  46  76 NW9G17    29.66R
$$
                *** MANITOBA***

CITY           SKY/WX    TMP DP  RH WIND       PRES   REMARKS
BRANDON        CLOUDY    54  43  66 N15       29.87R
DAUPHIN        CLOUDY    50  45  81 N15G22    29.90R
ISLAND LAKE    NOT AVBL
PILOT MOUND      N/A     50  46  87 N10         N/A
THE PAS        CLOUDY    48  45  87 NW12      29.91F
THOMPSON       LGT RAIN  37  37 100 N9        29.84S FOG
WINNIPEG       CLOUDY    50  48  93 N9        29.78R
LYNN LAKE      CLOUDY    45  39  81 N18G32    30.00R
CHURCHILL      LGT RAIN  34  32  93 N15       29.89R FOG     WCI  24
GILLAM         DRIZZLE   37  36  93 N10       29.79R FOG
$$
                ***SASKATCHEWAN***

CITY           SKY/WX    TMP DP  RH WIND       PRES   REMARKS
ESTEVAN        PTCLDY    54  41  62 NW21G31   30.01R
KINDERSLEY     PTCLDY    57  34  41 N8        30.19R
LLOYDMINSTER   PTCLDY    55  32  41 N6        30.20R
PRINCE ALBERT  MOCLDY    55  41  58 N15G25    30.12R
REGINA         PTCLDY    55  37  50 N15       30.07
YORKTON          N/A     52  45  76 N17G23    30.00R
N. BATTLEFORD  CLEAR     57  36  44 N9        30.19R
LA RONGE       LGT RAIN  54  43  66 NW9       30.13R
SASKATOON      PTCLDY    54  37  54 N14       30.16R
SWIFT CURRENT  CLEAR     54  32  43 N13G18    30.16R
$$
NOTE: THESE ARE AUTOMATED STATIONS WITH LIMITED QUALITY CONTROL
      "FAIR" INDICATES FEW OR NO CLOUDS BELOW 12,000 FEET WITH NO
      SIGNIFICANT WEATHER AND/OR OBSTRUCTIONS TO VISIBILITY.
      SKY/WX - SKY CONDITION AND SIGNIFICANT WEATHER.
      TMP - AIR TEMPERATURE.    DP   - DEWPOINT TEMPERATURE.
      RH  - RELATIVE HUMIDITY.  PRES - PRESSURE.
      HX  - HEAT INDEX.         WCI  - WIND CHILL INDEX.
$




USA.gov is the U.S. government's official web portal to all federal, state and local government web resources and services.